TimeEDT,TemperatureF,Dew PointF,Humidity,Sea Level PressureIn,VisibilityMPH,Wind Direction,Wind SpeedMPH,Gust SpeedMPH,PrecipitationIn,Events,Conditions,WindDirDegrees,DateUTC
12:53 AM,37.0,32.0,82,30.05,7.0,NE,6.9,-,N/A,,Overcast,40,2013-03-17 04:53:00
1:53 AM,36.0,30.9,82,30.06,8.0,NE,4.6,-,N/A,,Overcast,50,2013-03-17 05:53:00
2:53 AM,36.0,30.9,82,30.06,8.0,NNE,8.1,-,N/A,,Overcast,30,2013-03-17 06:53:00
3:53 AM,36.0,30.0,79,30.06,9.0,North,8.1,-,N/A,,Overcast,10,2013-03-17 07:53:00
4:53 AM,35.1,28.9,78,30.06,10.0,NNE,10.4,-,N/A,,Overcast,20,2013-03-17 08:53:00
5:53 AM,34.0,27.0,75,30.11,10.0,NE,6.9,-,N/A,,Overcast,40,2013-03-17 09:53:00
6:53 AM,34.0,28.0,79,30.13,10.0,NE,4.6,-,N/A,,Overcast,40,2013-03-17 10:53:00
7:53 AM,34.0,28.0,79,30.15,10.0,NE,5.8,-,N/A,,Overcast,50,2013-03-17 11:53:00
8:53 AM,35.1,27.0,72,30.18,10.0,ENE,5.8,-,N/A,,Overcast,70,2013-03-17 12:53:00
9:53 AM,35.1,28.0,76,30.17,9.0,ENE,9.2,-,N/A,,Overcast,70,2013-03-17 13:53:00
10:53 AM,35.1,28.9,78,30.17,10.0,ENE,8.1,-,N/A,,Overcast,70,2013-03-17 14:53:00
11:53 AM,34.0,28.0,79,30.17,10.0,ENE,13.8,-,N/A,,Overcast,70,2013-03-17 15:53:00
12:53 PM,35.1,26.1,70,30.18,10.0,ENE,11.5,-,N/A,,Overcast,60,2013-03-17 16:53:00
1:53 PM,36.0,28.0,73,30.16,10.0,ENE,10.4,-,N/A,,Overcast,70,2013-03-17 17:53:00
2:53 PM,36.0,28.0,73,30.16,10.0,East,10.4,-,N/A,,Overcast,80,2013-03-17 18:53:00
3:53 PM,37.0,27.0,67,30.14,10.0,ENE,10.4,-,N/A,,Overcast,60,2013-03-17 19:53:00
4:53 PM,37.0,28.0,70,30.12,10.0,East,11.5,-,N/A,,Overcast,90,2013-03-17 20:53:00
5:53 PM,37.0,28.0,70,30.10,10.0,ENE,13.8,-,N/A,,Overcast,60,2013-03-17 21:53:00
6:15 PM,37.4,28.4,70,30.08,10.0,ENE,13.8,-,N/A,,Overcast,70,2013-03-17 22:15:00
6:53 PM,37.0,28.9,73,30.10,10.0,ENE,12.7,-,N/A,,Overcast,70,2013-03-17 22:53:00
7:07 PM,37.4,28.4,70,30.08,10.0,East,13.8,-,N/A,,Overcast,80,2013-03-17 23:07:00
7:25 PM,37.4,28.4,70,30.08,10.0,ENE,11.5,-,N/A,,Overcast,70,2013-03-17 23:25:00
7:53 PM,37.0,28.0,70,30.10,10.0,East,12.7,-,N/A,,Overcast,90,2013-03-17 23:53:00
8:53 PM,37.0,28.9,73,30.09,10.0,East,9.2,-,N/A,,Overcast,80,2013-03-18 00:53:00
9:53 PM,37.0,28.9,73,30.07,10.0,East,10.4,-,N/A,,Overcast,80,2013-03-18 01:53:00
10:53 PM,36.0,28.9,76,30.06,10.0,East,10.4,-,0.01,,Overcast,90,2013-03-18 02:53:00
11:53 PM,36.0,30.0,79,30.04,9.0,East,10.4,-,0.00,Rain,Light Rain,80,2013-03-18 03:53:00